China Lake, CA

5:51 PM PDT on July 24, 2017 (GMT -0700)
China Lake NAWS

Weather History for KNID - August, 2013

Change the Weather History Date:

Tuesday, August 27, 2013

  Actual Average Record
Temperature  
Mean Temperature 86 °F -  
Max Temperature 100 °F 97 °F 111 °F (2001)
Min Temperature 73 °F 69 °F 61 °F (1996)
Cooling Degree Days 20    
Growing Degree Days 36 (Base 50)    
Moisture  
Dew Point 59 °F    
Average Humidity 40    
Maximum Humidity 57    
Minimum Humidity 27    
Precipitation  
Precipitation 0.00 in - - ()
Sea Level Pressure  
Sea Level Pressure 29.83 in    
Wind  
Wind Speed 4 mph (SSW)    
Max Wind Speed 10 mph    
Max Gust Speed -    
Visibility 10 miles    
Events      
Averages and records for this station are not official NWS values.
T = Trace of Precipitation, MM = Missing Value Source: NWS Daily Summary

Daily Weather History Graph

Daily Weather History Graph

Search for Another Location

Airport or City:

Trip Planner

Search our weather history database for the weather conditions in past years. The results will help you decide how hot, cold, wet, or windy it might be!

Date:

Astronomy

Aug. 27, 2013 Rise Set
Actual Time 6:19 AM PDT 7:24 PM PDT
Civil Twilight 5:52 AM PDT 7:50 PM PDT
Nautical Twilight 5:21 AM PDT 8:21 PM PDT
Astronomical Twilight 4:49 AM PDT 8:54 PM PDT
Moon 11:36 PM PDT (8/27) 1:06 PM PDT (8/27)
Length of Visible Light 13h 57m
Length of Day
13h 05m
Waning Gibbous, 56% of the Moon is Illuminated
Aug 27
Waning Gibbous
Aug 28
Last Quarter
Sep 5
New
Sep 12
First Quarter
Sep 19
Full

Hourly Weather History & Observations

Time (PDT) Temp. Heat Index Dew Point Humidity Pressure Visibility Wind Dir Wind Speed Gust Speed Precip Events Conditions
12:56 AM 80.1 °F 80.9 °F 60.1 °F 50% 29.89 in 10.0 mi ENE 3.5 mph - N/A   Partly Cloudy
1:56 AM 77.0 °F - 60.1 °F 56% 29.88 in 10.0 mi Calm Calm - N/A   Clear
2:56 AM 75.9 °F - 57.0 °F 52% 29.88 in 10.0 mi WSW 3.5 mph - N/A   Clear
3:56 AM 73.9 °F - 57.0 °F 55% 29.87 in 10.0 mi West 4.6 mph - N/A   Clear
4:56 AM 75.0 °F - 57.9 °F 55% 29.86 in 10.0 mi WSW 3.5 mph - N/A   Clear
5:56 AM 73.0 °F - 57.0 °F 57% 29.87 in 10.0 mi Calm Calm - N/A   Partly Cloudy
6:56 AM 73.9 °F - 57.0 °F 55% 29.88 in 10.0 mi South 3.5 mph - N/A   Mostly Cloudy
7:56 AM 80.1 °F 80.9 °F 60.1 °F 50% 29.89 in 10.0 mi Calm Calm - N/A   Scattered Clouds
8:56 AM 84.9 °F 85.0 °F 61.0 °F 44% 29.90 in 10.0 mi Calm Calm - N/A   Scattered Clouds
9:56 AM 87.1 °F 86.7 °F 60.1 °F 40% 29.90 in 10.0 mi Calm Calm - N/A   Mostly Cloudy
10:56 AM 89.1 °F 88.8 °F 60.1 °F 38% 29.88 in 10.0 mi ENE 4.6 mph - N/A   Mostly Cloudy
11:56 AM 93.0 °F 92.7 °F 60.1 °F 33% 29.87 in 10.0 mi NNE 4.6 mph - N/A   Mostly Cloudy
12:56 PM 93.0 °F 92.7 °F 60.1 °F 33% 29.84 in 10.0 mi Variable 5.8 mph - N/A   Mostly Cloudy
1:56 PM 93.0 °F 92.7 °F 60.1 °F 33% 29.83 in 10.0 mi WSW 8.1 mph - N/A   Mostly Cloudy
2:56 PM 98.1 °F 98.1 °F 60.1 °F 28% 29.79 in 10.0 mi Variable 3.5 mph - N/A   Mostly Cloudy
3:56 PM 97.0 °F 96.5 °F 59.0 °F 28% 29.77 in 10.0 mi Variable 4.6 mph - N/A   Mostly Cloudy
4:56 PM 97.0 °F 96.1 °F 57.9 °F 27% 29.75 in 10.0 mi South 5.8 mph - N/A   Mostly Cloudy
5:56 PM 96.1 °F 94.8 °F 57.0 °F 27% 29.75 in 10.0 mi SW 10.4 mph - N/A   Mostly Cloudy
6:56 PM 95.0 °F 93.7 °F 57.0 °F 28% 29.74 in 10.0 mi SW 8.1 mph - N/A   Mostly Cloudy
7:56 PM 91.9 °F 90.6 °F 57.0 °F 31% 29.74 in 10.0 mi SW 5.8 mph - N/A   Scattered Clouds
8:56 PM 89.1 °F 88.0 °F 57.9 °F 35% 29.76 in 10.0 mi South 5.8 mph - N/A   Mostly Cloudy
9:56 PM 87.1 °F 86.1 °F 57.9 °F 37% 29.78 in 10.0 mi SE 6.9 mph - N/A   Mostly Cloudy
10:56 PM 86.0 °F 85.0 °F 57.9 °F 38% 29.79 in 10.0 mi SE 5.8 mph - N/A   Clear
11:56 PM 84.9 °F 84.4 °F 59.0 °F 41% 29.79 in 10.0 mi South 8.1 mph - N/A   Clear